Regional Weather Roundup
Issued by NWS Glasgow, MT

Home | Current Version | Previous Version | Text Only | Print | Product List | Glossary On
Versions: 1 2 3 4 5 6 7 8 9 10 11 12 13 14 15 16 17 18 19 20 21 22 23 24 25 26 27 28 29 30 31 32 33 34 35 36 37 38 39 40 41 42 43 44 45 46 47 48 49 50
000
ASUS45 KGGW 200215
RWRGGW
HOURLY REGIONAL WEATHER ROUNDUP FOR NORTHEAST MONTANA
NATIONAL WEATHER SERVICE GLASGOW MONTANA
700 PM MST THU JAN 19 2017

NOTE: "FAIR" INDICATES FEW OR NO CLOUDS BELOW 12,000 FEET WITH NO
SIGNIFICANT WEATHER AND/OR OBSTRUCTIONS TO VISISBILITY.

NORTHEAST MONTANA


CITY           SKY/WX    TMP DP  RH WIND       PRES   REMARKS
GLASGOW        CLOUDY    26  21  81 VRB6      29.45S
PLENTYWOOD       N/A     25  23  92 E3          N/A
WOLF POINT     CLOUDY    19  15  84 SW6       29.46R
JORDAN           N/A     35  30  82 CALM      29.46R
WINNETT          N/A     37  32  82 W1          N/A
SIDNEY         CLOUDY    20  18  92 SW3       29.45S
GLENDIVE       CLOUDY    22  19  89 W5        29.45S
MALTA            N/A     34  30  86 NW1         N/A
SCOBEY           N/A     26  17  68 CALM      29.45S

FORT PECK REPORTS


CITY           SKY/WX    TMP DP  RH WIND       PRES   REMARKS
FORT PECK        N/A     31  28  89 SE3         N/A
THE PINES        N/A     32  25  75 CALM        N/A

SOUTHEAST MONTANA


CITY           SKY/WX    TMP DP  RH WIND       PRES   REMARKS
BILLINGS       LGT RAIN  36  28  73 SW10      29.53R
MILES CITY     CLOUDY    27  18  69 SW8       29.48S
BAKER          CLOUDY    27  19  72 VRB3      29.45F
LIVINGSTON     CLOUDY    40  24  53 SW22G29   29.52S

CENTRAL MONTANA


CITY           SKY/WX    TMP DP  RH WIND       PRES   REMARKS
HAVRE          CLOUDY    37  33  85 SW9       29.45R
LEWISTOWN      CLOUDY    39  31  72 S10       29.48S
GREAT FALLS    CLOUDY    39  28  64 S10       29.47R
CUT BANK       CLOUDY    36  26  67 SW15      29.44F
HELENA         CLOUDY    37  27  67 E3        29.52S
BUTTE          CLOUDY    31  23  72 W5        29.53S
BOZEMAN        CLOUDY    33  26  75 SW5       29.54S

WESTERN MONTANA


CITY           SKY/WX    TMP DP  RH WIND       PRES   REMARKS
MISSOULA       CLOUDY    33  33 100 CALM      29.60R FOG
KALISPELL      NOT AVBL

NORTH DAKOTA


CITY           SKY/WX    TMP DP  RH WIND       PRES   REMARKS
WILLISTON      CLOUDY    16  13  88 CALM      29.45S
DICKINSON      CLOUDY    22  17  81 W9        29.42S
MINOT          CLOUDY    29  25  85 SW6       29.43F
BISMARCK       CLOUDY    12   5  73 E3        29.49F

SOUTHERN SASKATCHEWAN


CITY           SKY/WX    TMP DP  RH WIND       PRES   REMARKS
REGINA         CLOUDY    32  28  86 SE7       29.38F
ESTEVAN        PTCLDY    23  21  93 SW12      29.42S
SWIFT CURRENT  CLOUDY    37  32  81 SW14      29.36R




USA.gov is the U.S. government's official web portal to all federal, state and local government web resources and services.